Temperature
30 31 32 32 32 33 32 32 31 31 31 31 31 31 31 31 31 30 29 28 27 26 26 25 25 24 24 23 23 22 22 21 21 21 21 20 20 19 19 19 19 19 19 19
29 31 31 31 32 32 33 33 32 31 31 32 31 31 31 30 30 29 29 28 27 26 25 25 24 24 23 23 23 22 22 21 21 21 20 20 20 19 19 19 19 19 19 19
28 30 30 30 31 32 32 33 32 31 31 31 31 30 30 29 29 29 28 28 27 26 25 24 24 24 23 23 22 22 21 21 21 21 20 20 19 19 19 19 19 18 18 18
27 28 27 29 32 32 32 32 33 32 32 31 31 30 29 29 28 28 27 27 26 26 25 24 24 23 23 22 22 22 21 21 21 20 20 19 19 19 19 19 18 18 18 18
27 27 28 29 31 31 31 30 32 31 31 31 31 30 29 28 28 27 26 26 25 25 25 24 23 23 22 22 22 21 21 21 20 20 20 19 19 19 19 18 18 18 18 18
26 26 26 28 30 31 31 29 31 30 30 30 30 29 28 27 27 26 26 25 25 24 24 23 23 22 22 21 21 21 21 20 20 20 20 19 19 19 19 18 18 18 17 17
25 25 26 29 30 30 28 27 29 29 28 28 28 28 27 26 26 25 25 25 24 24 23 23 23 22 22 21 21 21 20 20 20 20 19 19 19 19 19 18 18 18 17 17
24 24 25 28 28 27 26 27 27 27 27 27 27 26 26 25 25 25 24 24 24 23 23 22 22 22 21 21 21 20 20 19 19 19 19 19 19 18 18 18 18 17 17 17
25 25 25 26 25 25 25 26 26 26 26 26 26 26 25 25 24 24 24 23 23 23 22 22 21 21 21 20 20 20 19 19 19 19 18 18 18 18 18 18 17 17 17 17
24 24 25 25 25 25 25 25 25 25 25 25 25 25 24 24 23 23 23 22 22 22 21 21 20 20 20 20 20 19 19 19 18 18 18 18 18 18 17 17 17 17 17 17
23 24 24 24 24 24 24 24 24 24 24 24 24 23 23 23 22 22 22 22 21 21 21 20 20 19 19 19 19 19 19 18 18 18 18 18 18 18 17 17 17 17 17 17
23 23 23 23 23 23 23 23 23 23 23 23 23 22 22 22 22 21 21 21 21 20 20 20 19 19 19 19 19 19 18 18 18 17 17 17 17 17 17 17 17 17 17 17
22 21 21 21 22 22 21 22 22 22 22 22 22 21 21 21 21 21 20 20 20 20 19 19 19 18 18 18 18 18 18 18 17 17 17 17 17 17 17 16 16 16 16 16
20 20 20 20 20 20 21 21 21 21 21 21 21 20 20 20 20 20 19 19 19 19 19 19 18 18 18 18 18 18 17 17 17 17 17 17 17 17 17 16 16 16 16 16
19 19 19 19 19 20 20 20 20 20 20 20 20 19 19 19 19 19 19 19 19 18 18 18 18 18 17 17 17 17 17 17 17 17 17 17 17 17 16 16 16 15 15 15
18 19 19 19 19 19 19 19 19 19 19 19 19 19 18 18 18 18 18 18 18 18 18 17 17 17 17 17 17 17 17 17 17 16 16 16 16 16 16 16 15 15 15 15
18 18 18 18 18 19 19 19 19 19 18 18 18 18 18 18 18 18 18 17 17 17 17 17 17 17 17 17 17 17 17 16 16 16 16 16 16 16 15 15 15 15 15 14
17 18 18 18 18 18 18 18 18 18 18 18 18 17 17 17 17 17 17 17 17 17 17 17 17 17 16 16 16 16 16 16 16 16 15 15 15 15 15 15 15 14 14 14
17 17 17 17 17 17 17 17 17 17 17 17 17 17 17 17 16 16 16 16 16 16 16 16 16 16 16 16 16 16 16 16 16 15 15 15 15 15 15 15 14 14 14 14
17 17 17 17 17 17 17 17 17 16 16 16 16 16 16 16 16 16 16 16 15 16 16 16 16 16 15 16 15 15 15 15 15 15 15 15 15 15 14 14 14 14 14 13
16 16 16 16 16 16 16 16 16 16 16 16 16 16 16 16 15 15 15 15 15 15 15 15 15 15 15 15 15 15 15 15 15 15 14 14 14 14 14 14 13 13 13 13
15 15 15 15 15 15 15 15 15 15 15 15 15 15 15 15 15 15 15 14 14 15 15 15 15 15 15 15 14 14 14 14 14 14 14 14 14 13 13 13 13 13 12 12
14 14 14 15 15 15 15 15 14 14 14 14 14 14 14 14 15 14 14 14 14 14 14 14 14 14 14 14 14 14 14 14 13 13 13 13 13 13 12 12 12 12 12 11
13 14 14 14 14 14 14 14 14 14 14 14 14 14 14 14 14 14 14 14 14 14 14 14 14 14 14 14 13 13 13 13 13 13 13 12 12 12 12 12 11 11 11 11
13 13 13 13 13 13 13 13 13 13 13 14 14 14 14 14 13 13 13 13 13 13 13 13 13 13 13 13 13 13 13 13 13 12 12 12 12 11 11 11 11 10 10 10
13 13 13 13 13 13 13 13 13 13 13 13 13 13 13 13 13 13 13 13 13 13 13 13 13 12 12 12 12 12 12 12 12 12 12 11 11 11 11 10 10 10 9 9
13 13 13 13 13 13 13 13 13 13 13 13 13 13 13 13 12 12 12 12 12 12 12 12 12 12 12 12 12 12 12 12 11 11 11 11 11 10 10 10 9 9 9 8
Wind_Speed
15 15 13 13 14 14 14 13 11 9 9 7 6 5 6 7 8 7 7 8 8 8 7 7 7 7 6 6 7 7 8 8 7 7 6 6 6 5 5 5 5 4 3 4
15 17 16 15 14 15 15 13 11 8 5 3 2 3 5 6 5 6 5 6 7 7 7 7 7 7 7 6 6 7 7 7 6 6 6 6 6 5 5 5 4 4 4 4
14 16 15 17 15 14 13 13 12 8 5 4 3 3 5 5 5 5 4 4 5 6 6 6 6 6 6 7 7 7 7 7 7 7 7 6 7 6 5 5 5 5 5 4
12 13 17 12 12 12 10 9 8 6 5 5 5 4 4 5 5 4 4 3 4 5 6 6 5 5 5 6 7 7 7 7 7 7 7 7 6 6 5 4 4 5 4 5
11 14 16 11 11 11 9 8 6 4 4 4 2 3 3 3 4 4 3 3 3 3 5 6 6 6 5 6 7 7 7 7 7 7 6 6 6 5 4 4 4 5 4 5
11 13 14 10 9 9 8 9 5 3 1 0 2 2 0 2 4 3 3 3 2 3 3 4 5 6 6 5 6 6 6 5 5 5 5 5 5 5 4 4 4 5 5 5
13 13 10 8 7 8 9 4 1 1 3 3 2 1 2 4 4 4 3 3 3 3 2 3 5 5 5 4 4 4 4 3 4 4 5 5 4 4 4 5 5 5 5 5
13 13 10 6 5 3 2 4 4 2 2 2 3 3 3 4 4 3 2 2 3 3 3 4 4 5 4 4 3 3 3 3 3 4 5 5 4 4 5 5 6 6 5 5
7 6 1 2 3 3 4 5 5 4 3 2 2 1 2 3 2 2 1 1 2 3 4 4 4 4 3 3 3 4 4 4 3 3 3 3 4 5 5 4 5 6 5 5
4 5 3 2 2 3 3 3 4 4 4 4 4 4 3 2 2 1 1 1 1 2 3 3 3 3 2 3 3 3 4 4 3 4 4 3 3 4 4 5 6 6 5 4
5 4 3 1 2 2 2 3 4 5 4 4 4 5 4 2 1 1 1 1 1 1 2 3 3 3 2 2 3 3 3 4 4 4 4 3 3 3 4 3 4 4 3 2
5 3 3 2 2 3 3 3 4 5 5 4 4 4 4 2 0 0 1 0 1 1 2 2 3 3 2 2 3 3 3 4 4 4 3 3 3 3 1 2 2 2 2 2
4 5 4 3 4 4 4 4 5 5 5 5 4 4 4 2 1 1 2 2 2 2 2 3 3 3 3 3 3 3 3 3 3 4 3 4 4 4 3 1 1 1 2 2
4 4 4 4 5 5 5 6 6 6 5 5 4 4 3 2 2 1 1 2 2 2 2 3 3 2 3 3 3 3 3 3 3 3 3 4 4 4 4 4 3 2 2 3
5 6 5 5 5 5 6 6 6 6 5 3 3 3 3 2 2 2 1 1 1 2 2 2 2 1 1 2 3 3 3 3 3 3 4 4 4 5 4 3 3 2 2 2
7 6 5 6 6 6 7 7 6 5 5 3 3 2 3 2 1 1 1 1 2 2 1 2 1 1 2 2 2 2 2 4 3 3 4 4 4 3 3 2 2 2 2 2
7 7 6 7 7 6 6 6 5 5 5 3 3 3 2 2 1 1 0 1 1 2 2 2 2 1 2 2 2 3 3 3 3 4 4 4 3 2 2 2 2 2 1 2
7 7 7 7 7 5 5 5 5 4 3 2 3 3 2 1 1 1 1 1 1 1 1 1 1 1 2 2 2 3 3 4 4 4 3 3 3 2 3 3 3 2 1 1
7 7 7 7 6 5 5 4 3 3 3 2 2 2 1 1 1 0 1 1 1 1 1 1 2 2 2 1 2 3 4 4 3 3 3 3 4 3 3 3 2 2 2 1
5 5 5 5 4 4 4 3 3 3 3 2 2 2 1 1 1 0 1 1 0 1 1 2 1 1 1 1 3 3 3 3 2 2 2 3 3 2 2 2 1 1 1 0
4 4 4 4 4 4 3 2 3 3 2 1 1 1 1 1 1 0 1 1 1 1 1 0 0 1 1 2 4 2 2 2 2 2 2 2 2 1 1 0 1 0 0 1
4 3 3 3 3 2 2 2 2 2 2 1 1 1 0 1 0 1 2 1 1 1 1 1 1 2 2 3 2 1 1 2 2 1 1 1 0 0 1 1 1 1 1 1
3 3 2 2 2 2 2 2 1 1 1 1 1 1 1 1 1 1 1 1 1 1 1 1 2 2 2 1 1 0 0 1 0 0 0 0 1 1 1 1 1 1 1 2
2 2 2 2 2 2 3 2 1 1 1 1 1 1 1 0 0 1 1 2 2 2 1 2 3 2 1 1 1 1 1 1 1 1 1 1 1 1 1 1 2 2 3 3
2 2 2 2 1 2 2 1 0 1 1 1 0 1 0 0 1 1 2 2 2 2 2 2 2 2 0 1 1 2 2 2 3 3 3 2 2 3 3 3 3 3 3 2
2 2 2 1 1 1 1 1 1 1 1 0 1 1 1 1 2 1 2 2 2 2 2 1 2 1 1 1 2 2 2 3 4 3 4 4 4 4 4 4 5 4 3 3
1 1 1 1 1 1 1 1 0 0 0 0 0 1 2 2 1 1 2 2 2 1 2 1 1 1 1 2 2 3 3 4 4 4 5 4 4 4 5 5 4 3 3 4
Wind_Direction
256 261 249 242 235 233 237 240 235 226 213 198 179 173 154 147 145 144 147 144 139 143 150 159 162 156 163 172 172 176 177 183 186 185 185 186 190 195 194 200 214 213 214 220
253 256 254 252 244 235 238 243 242 230 221 203 178 157 136 132 144 146 141 140 143 146 154 162 163 166 167 170 172 171 180 187 182 180 184 192 195 195 196 202 215 216 215 223
253 249 246 247 245 239 232 233 238 229 214 181 181 158 145 144 149 142 140 146 152 151 160 165 168 169 171 174 174 175 182 187 183 183 188 194 204 198 201 205 213 220 221 220
251 251 245 248 251 249 246 247 234 216 199 200 197 164 140 127 122 119 140 154 158 163 168 177 171 166 170 177 177 179 185 192 188 189 192 193 199 202 202 204 212 220 221 223
249 243 240 242 246 248 246 250 247 227 214 215 187 142 101 86 98 106 106 113 144 160 180 174 169 167 171 178 177 182 189 193 190 190 194 198 203 202 204 209 216 221 219 219
245 243 243 239 246 257 246 239 254 257 280 22 183 213 92 89 95 92 97 110 126 141 164 164 157 156 165 177 176 188 192 192 190 189 194 200 204 203 207 214 220 224 225 224
241 247 252 263 268 263 240 239 340 19 57 54 53 25 62 71 84 88 108 128 130 135 144 132 131 139 156 166 185 185 178 181 189 194 198 204 202 198 201 211 219 226 230 228
232 239 242 289 275 267 15 30 26 34 50 32 38 51 52 71 78 86 82 121 134 131 126 123 130 143 162 177 180 172 169 180 196 206 217 212 201 208 211 216 219 222 229 236
231 228 279 1 63 66 39 30 21 17 23 4 349 23 41 61 76 84 86 85 118 121 122 132 144 154 183 187 170 170 170 183 197 209 223 215 206 214 220 223 228 228 225 232
236 213 228 314 32 53 43 17 4 1 359 351 352 351 2 63 55 40 59 69 110 124 138 143 146 155 189 170 163 167 177 182 191 210 216 217 221 220 221 226 233 233 233 231
238 233 243 254 330 358 6 352 342 337 334 339 343 346 352 13 91 41 18 48 136 152 148 145 142 150 165 165 162 179 189 191 206 215 213 216 221 228 227 238 238 236 245 239
250 276 281 293 340 338 329 315 319 323 324 320 325 326 330 333 13 301 274 251 177 165 162 157 156 158 161 185 180 189 202 207 215 222 216 212 212 236 270 246 245 224 212 217
284 287 292 293 296 306 310 313 311 315 319 316 321 321 321 319 260 251 235 235 205 182 167 161 166 173 170 177 185 203 215 217 222 224 224 223 219 222 234 268 301 273 244 219
306 294 282 283 287 292 294 300 301 300 302 305 320 323 325 327 304 262 236 225 211 170 160 161 160 166 167 174 189 206 226 234 225 225 231 237 230 231 230 225 227 243 257 230
285 274 268 276 277 278 280 282 282 289 298 303 321 323 324 312 300 289 261 217 171 169 160 146 146 161 162 187 197 215 232 238 237 241 247 250 245 243 242 236 232 223 224 225
269 263 267 271 270 268 268 269 270 282 295 303 312 311 303 290 280 275 264 189 164 193 163 154 179 197 201 210 208 218 226 228 234 250 255 258 252 246 241 232 228 230 230 223
259 258 260 262 266 266 271 275 277 281 284 291 304 296 286 274 266 246 190 119 150 166 159 166 184 182 199 204 225 238 236 232 233 246 248 255 256 240 239 247 237 226 230 206
257 258 262 265 270 267 276 286 279 278 288 308 320 304 302 299 268 212 160 135 101 101 134 161 198 198 206 220 228 249 244 229 227 233 243 256 261 245 238 241 244 234 214 195
247 251 257 263 267 265 268 274 287 300 312 300 306 319 341 314 300 218 118 115 114 81 5 297 260 239 223 203 235 250 253 248 238 236 246 243 245 246 242 239 239 228 210 192
262 258 260 265 264 258 254 270 290 297 305 311 327 330 333 327 308 266 120 117 47 352 4 352 325 298 256 252 279 252 241 238 244 251 254 252 247 247 246 243 242 242 216 201
280 269 264 262 260 261 262 269 280 278 271 247 256 302 337 5 352 198 176 194 77 27 272 213 19 21 347 320 281 264 262 262 255 256 263 262 266 264 251 285 310 350 13 3
293 286 279 282 283 294 306 291 283 284 273 257 234 253 340 2 58 104 97 118 84 57 66 88 66 22 339 306 288 286 280 275 278 282 273 275 294 351 50 31 7 0 15 33
310 319 324 328 322 320 307 298 296 298 296 286 274 269 266 287 252 191 177 101 117 111 79 25 27 27 355 310 296 211 250 281 298 46 24 48 71 53 40 35 35 28 40 59
321 311 319 335 351 331 309 303 336 355 331 346 304 302 308 204 111 115 112 85 54 89 70 46 51 28 325 285 307 38 73 107 102 82 68 75 82 77 70 54 44 43 49 55
292 305 310 302 283 275 278 303 335 175 213 237 12 77 84 51 77 76 76 79 89 88 69 74 75 64 65 359 70 78 68 61 66 68 73 72 71 72 75 78 75 66 60 52
301 297 299 300 292 304 297 281 231 231 238 21 32 44 58 68 86 97 98 104 100 99 89 85 85 89 59 40 68 85 84 79 82 80 76 73 71 73 73 72 72 69 66 64
303 283 269 262 265 275 275 270 216 186 259 277 354 48 50 61 77 86 92 97 102 101 100 104 107 102 89 84 82 83 86 85 79 76 75 76 76 76 73 73 70 68 66 65
Height
1459 1453 1449 1453 1454 1453 1458 1460 1470 1472 1471 1469 1468 1469 1471 1473 1476 1480 1483 1487 1490 1493 1496 1500 1503 1506 1509 1511 1514 1516 1517 1518 1519 1521 1522 1523 1525 1526 1527 1527 1528 1528 1528 1528
1464 1456 1452 1454 1451 1452 1454 1455 1458 1463 1467 1462 1466 1468 1470 1473 1476 1479 1483 1486 1489 1493 1495 1497 1500 1503 1506 1509 1511 1513 1515 1516 1517 1518 1520 1521 1522 1523 1524 1524 1525 1525 1525 1525
1470 1458 1457 1464 1454 1452 1452 1451 1456 1465 1465 1463 1466 1469 1471 1474 1477 1479 1483 1486 1489 1491 1493 1495 1498 1500 1502 1505 1507 1509 1511 1513 1514 1516 1517 1518 1519 1520 1520 1521 1522 1522 1522 1522
1470 1469 1482 1460 1446 1447 1450 1451 1450 1455 1458 1462 1465 1468 1471 1474 1476 1479 1483 1485 1487 1489 1493 1494 1496 1498 1500 1503 1505 1506 1509 1510 1511 1512 1514 1515 1516 1517 1517 1518 1518 1518 1519 1519
1472 1474 1468 1456 1449 1448 1453 1456 1452 1455 1458 1461 1464 1467 1472 1474 1477 1480 1482 1484 1487 1489 1491 1492 1494 1496 1498 1500 1502 1504 1506 1508 1509 1510 1511 1512 1513 1513 1514 1515 1515 1515 1515 1515
1472 1477 1477 1461 1449 1448 1453 1462 1456 1457 1460 1463 1465 1471 1475 1476 1477 1479 1481 1484 1486 1487 1489 1490 1491 1493 1495 1498 1500 1502 1503 1505 1506 1506 1507 1508 1509 1510 1510 1511 1511 1512 1512 1512
1474 1475 1466 1453 1450 1450 1466 1468 1460 1460 1462 1465 1468 1471 1475 1476 1477 1479 1481 1483 1485 1486 1487 1488 1489 1491 1493 1495 1497 1499 1500 1501 1502 1503 1504 1505 1506 1506 1507 1507 1508 1508 1508 1508
1472 1476 1473 1456 1453 1459 1464 1462 1463 1463 1464 1467 1470 1472 1474 1475 1476 1479 1480 1482 1483 1484 1485 1487 1488 1489 1491 1493 1495 1497 1498 1498 1499 1500 1501 1502 1502 1503 1503 1504 1504 1504 1504 1504
1463 1466 1462 1459 1460 1462 1464 1465 1465 1465 1467 1469 1471 1473 1475 1476 1477 1479 1480 1481 1482 1483 1484 1485 1487 1487 1488 1491 1493 1494 1494 1495 1496 1497 1497 1498 1499 1499 1500 1500 1500 1500 1500 1500
1461 1462 1462 1462 1463 1464 1466 1467 1468 1468 1469 1470 1472 1473 1474 1475 1477 1478 1479 1480 1480 1481 1482 1483 1485 1486 1488 1490 1490 1491 1491 1492 1493 1494 1495 1495 1496 1496 1496 1496 1496 1496 1496 1496
1461 1462 1463 1464 1465 1466 1467 1468 1469 1469 1470 1471 1472 1472 1474 1474 1476 1477 1478 1478 1479 1480 1481 1482 1483 1484 1486 1487 1488 1488 1489 1490 1491 1492 1492 1492 1492 1493 1493 1493 1493 1493 1493 1493
1462 1463 1464 1465 1466 1467 1468 1469 1470 1470 1471 1471 1472 1472 1473 1473 1474 1475 1476 1477 1477 1478 1479 1480 1481 1482 1483 1485 1485 1486 1487 1487 1488 1489 1489 1489 1489 1489 1489 1490 1490 1489 1489 1489
1463 1465 1465 1466 1467 1468 1469 1469 1469 1470 1470 1470 1471 1471 1471 1472 1472 1473 1474 1475 1476 1476 1477 1478 1479 1480 1481 1482 1482 1483 1484 1485 1486 1486 1486 1486 1486 1486 1486 1486 1486 1486 1486 1485
1463 1464 1465 1466 1467 1468 1468 1468 1468 1469 1469 1469 1469 1469 1470 1470 1470 1471 1472 1473 1473 1474 1475 1476 1477 1478 1479 1479 1480 1480 1481 1482 1483 1483 1483 1483 1483 1483 1483 1483 1482 1482 1482 1482
1463 1464 1464 1465 1465 1466 1467 1467 1467 1467 1467 1467 1467 1467 1468 1468 1469 1469 1470 1470 1471 1471 1472 1473 1474 1475 1476 1477 1477 1478 1478 1479 1480 1480 1481 1481 1481 1481 1481 1480 1479 1479 1479 1478
1463 1463 1463 1463 1463 1464 1465 1465 1465 1465 1465 1465 1465 1465 1466 1467 1467 1467 1468 1468 1468 1469 1470 1471 1472 1473 1474 1474 1475 1475 1475 1476 1477 1477 1478 1478 1478 1478 1477 1477 1476 1476 1475 1475
1461 1460 1461 1462 1462 1462 1462 1463 1462 1462 1463 1462 1463 1464 1464 1464 1464 1465 1466 1466 1467 1467 1468 1469 1470 1470 1471 1471 1472 1472 1473 1473 1474 1475 1475 1475 1475 1474 1474 1474 1474 1473 1473 1473
1458 1459 1460 1460 1460 1460 1460 1461 1460 1460 1459 1461 1461 1461 1461 1462 1462 1463 1464 1464 1465 1465 1466 1467 1467 1468 1468 1469 1469 1469 1470 1471 1471 1471 1472 1472 1472 1472 1472 1471 1471 1471 1470 1470
1456 1457 1457 1457 1458 1458 1458 1459 1459 1458 1459 1459 1459 1458 1459 1459 1460 1460 1461 1462 1462 1463 1464 1465 1465 1466 1466 1466 1467 1467 1468 1468 1469 1469 1469 1469 1469 1469 1469 1469 1469 1469 1469 1468
1454 1454 1454 1455 1455 1455 1455 1456 1456 1456 1456 1456 1456 1456 1456 1456 1456 1457 1458 1459 1459 1460 1461 1462 1463 1463 1463 1464 1464 1465 1465 1466 1466 1466 1466 1466 1466 1466 1467 1466 1466 1466 1466 1465
1452 1452 1452 1452 1453 1453 1454 1454 1454 1454 1454 1454 1454 1454 1454 1454 1454 1455 1455 1456 1457 1458 1459 1459 1460 1460 1461 1461 1462 1462 1463 1463 1463 1463 1463 1463 1463 1463 1464 1463 1463 1463 1462 1462
1450 1450 1450 1450 1451 1451 1452 1452 1452 1452 1452 1452 1452 1452 1453 1453 1453 1453 1454 1454 1455 1456 1456 1457 1457 1457 1458 1458 1459 1459 1459 1460 1460 1460 1460 1459 1460 1460 1461 1460 1460 1460 1460 1460
1449 1449 1449 1449 1449 1449 1449 1450 1450 1450 1450 1451 1451 1451 1451 1452 1452 1452 1452 1452 1453 1453 1454 1454 1454 1454 1455 1455 1456 1456 1456 1457 1457 1457 1457 1456 1457 1458 1458 1457 1457 1457 1457 1457
1447 1448 1447 1448 1447 1447 1447 1447 1448 1449 1449 1450 1450 1450 1450 1450 1451 1451 1451 1450 1451 1451 1451 1451 1452 1452 1452 1453 1454 1454 1454 1454 1455 1455 1455 1455 1455 1455 1455 1455 1455 1455 1455 1455
1447 1447 1447 1446 1446 1446 1446 1446 1446 1447 1448 1448 1448 1449 1449 1449 1450 1449 1449 1449 1449 1449 1449 1450 1450 1450 1450 1451 1452 1453 1453 1453 1453 1453 1453 1454 1454 1453 1453 1453 1454 1454 1453 1453
1446 1446 1446 1445 1445 1445 1445 1445 1446 1446 1447 1447 1448 1448 1448 1448 1448 1448 1447 1447 1447 1448 1448 1449 1449 1449 1450 1451 1451 1452 1452 1452 1453 1453 1453 1453 1453 1452 1452 1452 1452 1452 1452 1452
1445 1445 1445 1444 1444 1445 1445 1445 1445 1445 1446 1446 1447 1447 1447 1447 1446 1446 1446 1446 1447 1448 1448 1448 1448 1449 1449 1450 1451 1451 1452 1452 1452 1453 1452 1452 1452 1452 1452 1452 1452 1452 1451 1451